OE-11124 Weather Reports


time (UTC)temp
C
wind
direction
speed
KPH
gust
KPH
rain 1hr
cm
rain 24hr
cm
rain mn
cm
humidity
%
barometer
mb
20260902214143 4 246 16.1 33.8 0.00 0.00 0.00 88
20260902213529 4 232 20.9 40.2 0.00 0.00 0.00 88
20260902211144 4 246 16.1 30.6 0.00 0.00 0.00 88
20260902210530 4 240 16.1 32.2 0.00 0.00 0.00 87
20260902205530 4 243 14.5 32.2 0.00 0.00 0.00 88
20260902204144 4 256 14.5 27.4 0.00 0.00 0.00 89
20260902203529 4 265 9.7 24.1 0.00 0.00 0.00 90
20260902202530 4 248 14.5 27.4 0.00 0.00 0.00 93
20260902201143 4 241 11.3 29.0 0.00 0.00 0.00 92
20260902200530 4 250 11.3 25.7 0.00 0.00 0.00 93
20260902195530 4 254 9.7 24.1 0.00 0.00 0.00 94
20260902194143 4 265 11.3 29.0 0.00 0.00 0.00 94
20260902193530 4 280 12.9 30.6 0.00 0.00 0.00 92
20260902192529 5 267 14.5 37.0 0.00 0.00 0.00 91
20260902191143 5 262 14.5 32.2 0.00 0.00 0.00 92
20260902190529 5 268 14.5 38.6 0.00 0.00 0.00 90
20260902185530 5 259 12.9 35.4 0.00 0.00 0.00 88
20260902184143 5 250 12.9 29.0 0.00 0.00 0.00 90
20260902183530 5 257 11.3 33.8 0.00 0.00 0.00 88
20260902182530 5 248 12.9 40.2 0.00 0.00 0.00 86
20260902181143 5 265 12.9 37.0 0.00 0.00 0.00 88
20260902180530 5 263 14.5 38.6 0.00 0.00 0.00 86
20260902175530 5 256 11.3 29.0 0.00 0.00 0.00 86
20260902174143 5 255 14.5 43.5 0.00 0.00 0.00 84
20260902173529 5 258 9.7 29.0 0.00 0.00 0.00 82
20260902172530 6 255 14.5 41.8 0.00 0.00 0.00 80
20260902171143 6 249 14.5 40.2 0.00 0.00 0.00 80
20260902170530 6 240 12.9 37.0 0.00 0.00 0.00 77
20260902165530 6 238 14.5 37.0 0.00 0.00 0.00 77
20260902164143 6 244 16.1 41.8 0.00 0.00 0.00 76
20260902163530 6 248 14.5 37.0 0.00 0.00 0.00 74
20260902162530 6 251 9.7 33.8 0.00 0.00 0.00 73
20260902161143 6 270 14.5 43.5 0.00 0.00 0.00 72
20260902160529 6 267 12.9 27.4 0.00 0.00 0.00 73
20260902155530 7 252 12.9 40.2 0.00 0.00 0.00 72
20260902154143 7 253 12.9 37.0 0.00 0.00 0.00 69
20260902153530 7 240 17.7 40.2 0.00 0.00 0.00 68
20260902152529 7 236 16.1 37.0 0.00 0.00 0.00 67
20260902151143 7 233 14.5 37.0 0.00 0.00 0.00 67
20260902150530 7 228 16.1 37.0 0.00 0.00 0.00 66
20260902145530 8 231 12.9 33.8 0.00 0.00 0.00 62
20260902144143 7 231 11.3 29.0 0.00 0.00 0.00 60
20260902143529 8 223 11.3 35.4 0.00 0.00 0.00 59
20260902142530 7 231 12.9 30.6 0.00 0.00 0.00 57
20260902141143 8 233 9.7 27.4 0.00 0.00 0.00 53
20260902140530 8 198 11.3 33.8 0.00 0.00 0.00 53
20260902135530 8 206 11.3 33.8 0.00 0.00 0.00 53
20260902134141 8 223 6.4 19.3 0.00 0.00 0.00 51
20260902133530 8 197 11.3 29.0 0.00 0.00 0.00 52
20260902132530 8 200 12.9 33.8 0.00 0.00 0.00 49
20260902131143 7 225 4.8 20.9 0.00 0.00 0.00 49
20260902130530 7 196 17.7 38.6 0.00 0.00 0.00 50
20260902125530 7 215 9.7 32.2 0.00 0.00 0.00 46
20260902124142 8 227 8.0 25.7 0.00 0.00 0.00 40
20260902123530 7 214 8.0 22.5 0.00 0.00 0.00 38
20260902122530 6 240 16.1 29.0 0.00 0.00 0.00 41
20260902121143 6 238 14.5 29.0 0.00 0.00 0.00 42
20260902120529 7 237 6.4 20.9 0.00 0.00 0.00 41
20260902115529 6 243 12.9 27.4 0.00 0.00 0.00 44
20260902114143 6 243 9.7 24.1 0.00 0.00 0.00 42
20260902113530 7 234 8.0 30.6 0.00 0.00 0.00 43
20260902112530 7 219 11.3 30.6 0.00 0.00 0.00 47
20260902111143 7 225 8.0 24.1 0.00 0.00 0.00 52
20260902110530 6 198 17.7 35.4 0.00 0.00 0.00 51
20260902105529 6 195 16.1 33.8 0.00 0.00 0.00 50
20260902104143 6 197 11.3 25.7 0.00 0.00 0.00 51
20260902103530 6 191 14.5 32.2 0.00 0.00 0.00 52
20260902102529 6 194 17.7 33.8 0.00 0.00 0.00 51
20260902101143 5 199 19.3 30.6 0.00 0.00 0.00 53
20260902100530 5 194 20.9 29.0 0.00 0.00 0.00 52
20260902095530 5 213 9.7 22.5 0.00 0.00 0.00 49
20260902094143 5 214 9.7 24.1 0.00 0.00 0.00 48
20260902093530 6 222 11.3 30.6 0.00 0.00 0.00 46
20260902092530 6 219 16.1 29.0 0.00 0.00 0.00 46
20260902091142 5 221 17.7 38.6 0.00 0.00 0.00 44
20260902090530 5 229 16.1 41.8 0.00 0.00 0.00 41
20260902084142 5 209 14.5 25.7 0.00 0.00 0.00 45
20260902083530 5 219 17.7 37.0 0.00 0.00 0.00 46
20260902082531 5 208 19.3 35.4 0.00 0.00 0.00 44
20260902081142 4 226 17.7 33.8 0.00 0.00 0.00 48
20260902080529 4 225 19.3 41.8 0.00 0.00 0.00 46
20260902074143 4 216 12.9 29.0 0.00 0.00 0.00 51
20260902073529 4 209 14.5 32.2 0.00 0.00 0.00 51
20260902072530 4 210 16.1 33.8 0.00 0.00 0.00 52
20260902071343 4 212 17.7 32.2 0.00 0.00 0.00 51
20260902070529 4 219 14.5 32.2 0.00 0.00 0.00 49
20260902065529 4 214 14.5 29.0 0.00 0.00 0.00 52
20260902064143 3 216 17.7 32.2 0.00 0.00 0.00 56
20260902062530 3 220 22.5 43.5 0.00 0.00 0.00 57
20260902061143 4 220 30.6 48.3 0.00 0.00 0.00 51
20260902060530 4 222 30.6 46.7 0.00 0.00 0.00 50
20260902055530 4 222 32.2 45.1 0.00 0.00 0.00 53
20260902054143 4 222 32.2 40.2 0.00 0.00 0.00 53
20260902053530 4 220 30.6 45.1 0.00 0.00 0.00 53
20260902052529 4 219 29.0 43.5 0.00 0.00 0.00 54
20260902051143 4 223 30.6 45.1 0.00 0.00 0.00 54
20260902050529 4 214 32.2 43.5 0.00 0.00 0.00 59
20260902045530 3 202 27.4 37.0 0.00 0.00 0.00 64
20260902044143 3 208 29.0 37.0 0.00 0.00 0.00 63
20260902043530 3 204 27.4 35.4 0.00 0.00 0.00 63
20260902042530 3 202 27.4 33.8 0.00 0.00 0.00 65
20260902041143 3 203 24.1 37.0 0.00 0.00 0.00 62
20260902040529 3 201 20.9 33.8 0.00 0.00 0.00 63
20260902035530 3 210 24.1 35.4 0.00 0.00 0.00 60
20260902034530 3 212 24.1 38.6 0.00 0.00 0.00 59
20260902033529 3 214 24.1 43.5 0.00 0.00 0.00 63
20260902032529 3 215 22.5 38.6 0.00 0.00 0.00 65
20260902031529 4 218 25.7 38.6 0.00 0.00 0.00 61
20260902030530 4 221 25.7 38.6 0.00 0.00 0.00 68
20260902025529 4 222 24.1 35.4 0.00 0.00 0.00 74
20260902024530 4 221 24.1 32.2 0.00 0.00 0.00 79
20260902023530 4 216 19.3 29.0 0.00 0.00 0.00 74
20260902022529 4 219 20.9 32.2 0.00 0.00 0.00 76
20260902021529 4 222 20.9 37.0 0.00 0.00 0.00 72
20260902015530 4 214 20.9 29.0 0.00 0.00 0.00 76
20260902014530 4 222 24.1 32.2 0.00 0.00 0.00 77
20260902013529 5 224 24.1 33.8 0.00 0.00 0.00 74
20260902012530 5 223 24.1 33.8 0.00 0.00 0.00 60
20260902011529 5 221 19.3 29.0 0.00 0.00 0.00 78
20260902010530 4 222 19.3 27.4 0.00 0.00 0.00 88
20260902005530 5 225 19.3 29.0 0.00 0.00 0.00 86
20260901221143 5 230 16.1 24.1 0.00 0.00 0.00 87
20260901220530 5 234 17.7 24.1 0.00 0.00 0.00 86
20260901215530 5 232 20.9 27.4 0.00 0.00 0.00 85